Location: Oshawa
(43.9000°N, 78.8670°W)
Time: 10:01:34
(UTC-04:00)

CARTOSAT-1 - Visible Passes

Search period start: 28 June 2017 00:00
Search period end: 08 July 2017 00:00
Orbit: 616 x 620 km, 97.9° (Epoch: 27 June)

Date Brightness Start Highest point End Pass type
(mag) Time Alt. Az. Time Alt. Az. Time Alt. Az.
28 Jun 4.7 22:26:14 16° ESE 22:28:55 31° ENE 22:32:44 10° N visible
29 Jun 5.2 00:03:22 20° SW 00:05:00 25° W 00:08:36 10° NW visible
29 Jun 4.1 22:43:12 22° SE 22:45:36 46° ENE 22:49:44 10° N visible
30 Jun 5.7 00:20:20 14° WSW 00:21:55 17° W 00:24:46 10° NW visible
30 Jun 3.6 23:00:10 29° SSE 23:02:18 70° ENE 23:06:37 10° N visible
01 Jul 6.1 00:37:32 10° WSW 00:38:52 11° W 00:40:12 10° WNW visible
01 Jul 5.8 21:42:05 10° E 21:43:37 12° ENE 21:45:08 10° NE visible
01 Jul 3.6 23:17:08 32° S 23:19:04 78° WSW 23:23:24 10° NNW visible
02 Jul 5.5 21:57:26 10° ESE 22:00:11 17° ENE 22:02:56 10° NNE visible
02 Jul 4.1 23:34:06 31° SSW 23:35:52 50° W 23:40:05 10° NNW visible
03 Jul 5.0 22:13:56 13° ESE 22:16:46 24° ENE 22:20:15 10° NNE visible
03 Jul 4.8 23:51:04 25° SW 23:52:42 33° W 23:56:37 10° NNW visible
04 Jul 4.5 22:30:54 19° ESE 22:33:26 34° ENE 22:37:21 10° N visible
05 Jul 5.3 00:08:02 19° WSW 00:09:34 23° W 00:13:00 10° NW visible
05 Jul 3.9 22:47:52 25° SE 22:50:07 51° ENE 22:54:19 10° N visible
06 Jul 5.8 00:25:01 13° WSW 00:26:30 15° W 00:29:03 10° NW visible
06 Jul 3.5 23:04:51 32° SSE 23:06:50 78° ENE 23:11:10 10° N visible
07 Jul 5.7 21:46:07 10° E 21:48:05 13° ENE 21:50:03 10° NNE visible
07 Jul 3.7 23:21:49 34° S 23:23:35 69° WSW 23:27:55 10° NNW visible
